When you browse on this site, cookies collect data to enhance your experience and personalize the content and advertising you see.
Visit our Privacy Policy to learn more. By continuing to use the site, you agree to this use of cookies and data.
  • In Latvia
  • List of Countries
  • For 7 days
  • Water Temperature
  • Satellite Maps
  • Weather Map
  • Weather Widgets
  • user-avatar
    Login

    Hourly Weather Littau

    Today, 22 July, Monday

    Time Temperature Precipitation Wind Pressure Humidity
    00:00 +19°C° 0 mm 1 mps 714 mmHg 91%
    01:00 +19°C° 0 mm 1 mps 714 mmHg 92%
    02:00 +19°C° 0 mm 1 mps 714 mmHg 92%
    03:00 +19°C° 0 mm 1 mps 714 mmHg 91%
    04:00 +19°C° 0 mm 1 mps 714 mmHg 91%
    05:00 +20°C° 0 mm 1 mps 714 mmHg 90%
    06:00 +21°C° 0 mm 1 mps 715 mmHg 88%
    07:00 +20°C° 0 mm 0 mps 715 mmHg 87%
    08:00 +24°C° 0 mm 1 mps 715 mmHg 78%
    09:00 +26°C° 0 mm 1 mps 715 mmHg 69%
    10:00 +28°C° 0 mm 1 mps 716 mmHg 61%
    11:00 +29°C° 0 mm 1 mps 715 mmHg 58%
    12:00 +30°C° 0 mm 1 mps 715 mmHg 55%
    13:00 +31°C° 0 mm 1 mps 715 mmHg 51%
    14:00 +30°C° 0.1 mm 1 mps 715 mmHg 53%
    15:00 +30°C° 0.1 mm 1 mps 715 mmHg 54%
    16:00 +30°C° 0.1 mm 1 mps 715 mmHg 55%
    17:00 +28°C° 0.1 mm 1 mps 715 mmHg 62%
    18:00 +27°C° 0.1 mm 1 mps 714 mmHg 68%
    19:00 +26°C° 0.1 mm 1 mps 714 mmHg 75%
    20:00 +24°C° 0 mm 1 mps 714 mmHg 78%
    21:00 +23°C° 0 mm 1 mps 714 mmHg 81%
    22:00 +21°C° 0 mm 1 mps 714 mmHg 83%
    23:00 +21°C° 0 mm 1 mps 714 mmHg 85%

    Tomorrow, 23 July, Tuesday

    Time Temperature Precipitation Wind Pressure Humidity
    00:00 +20°C° 0 mm 1 mps 714 mmHg 86%
    01:00 +20°C° 0 mm 1 mps 713 mmHg 88%
    02:00 +20°C° 0 mm 1 mps 713 mmHg 88%
    03:00 +17°C° 0 mm 0 mps 713 mmHg 89%
    04:00 +17°C° 0 mm 0 mps 713 mmHg 89%
    05:00 +18°C° 0 mm 0 mps 713 mmHg 86%
    06:00 +19°C° 0 mm 0 mps 713 mmHg 83%
    07:00 +21°C° 0 mm 0 mps 713 mmHg 79%
    08:00 +23°C° 0 mm 0 mps 713 mmHg 73%
    09:00 +26°C° 0 mm 1 mps 713 mmHg 66%
    10:00 +28°C° 0 mm 1 mps 713 mmHg 60%
    11:00 +30°C° 0 mm 1 mps 713 mmHg 55%
    12:00 +31°C° 0 mm 1 mps 713 mmHg 51%
    13:00 +32°C° 0 mm 2 mps 713 mmHg 47%
    14:00 +32°C° 0 mm 2 mps 713 mmHg 47%
    15:00 +32°C° 0 mm 2 mps 712 mmHg 46%
    16:00 +32°C° 0 mm 2 mps 712 mmHg 46%
    17:00 +30°C° 0.1 mm 1 mps 712 mmHg 55%
    18:00 +29°C° 0.1 mm 1 mps 711 mmHg 64%
    19:00 +27°C° 0.1 mm 1 mps 711 mmHg 72%
    20:00 +26°C° 0 mm 1 mps 711 mmHg 75%
    21:00 +24°C° 0 mm 1 mps 711 mmHg 78%
    22:00 +23°C° 0 mm 1 mps 711 mmHg 81%
    23:00 +23°C° 0 mm 1 mps 711 mmHg 82%

    Day after tomorrow, 24 July, Wednesday

    Time Temperature Precipitation Wind Pressure Humidity
    00:00 +22°C° 0 mm 1 mps 711 mmHg 83%
    01:00 +22°C° 0 mm 1 mps 711 mmHg 84%
    02:00 +22°C° 0 mm 1 mps 710 mmHg 84%
    03:00 +21°C° 0 mm 1 mps 710 mmHg 84%
    04:00 +21°C° 0 mm 1 mps 710 mmHg 84%
    05:00 +22°C° 0 mm 1 mps 710 mmHg 82%
    06:00 +21°C° 0 mm 0 mps 711 mmHg 80%
    07:00 +23°C° 0 mm 0 mps 711 mmHg 77%
    08:00 +25°C° 0 mm 0 mps 711 mmHg 69%
    09:00 +29°C° 0 mm 1 mps 711 mmHg 61%
    10:00 +31°C° 0 mm 1 mps 711 mmHg 53%
    11:00 +32°C° 0 mm 1 mps 711 mmHg 49%
    12:00 +33°C° 0 mm 1 mps 711 mmHg 45%
    13:00 +34°C° 0 mm 1 mps 711 mmHg 41%
    14:00 +34°C° 0 mm 1 mps 711 mmHg 41%
    15:00 +33°C° 0 mm 1 mps 711 mmHg 41%
    16:00 +33°C° 0 mm 1 mps 711 mmHg 41%
    17:00 +31°C° 0.1 mm 1 mps 710 mmHg 49%
    18:00 +28°C° 0.1 mm 0 mps 710 mmHg 58%
    19:00 +26°C° 0.1 mm 0 mps 710 mmHg 66%
    20:00 +25°C° 0 mm 0 mps 710 mmHg 67%
    21:00 +25°C° 0 mm 1 mps 710 mmHg 68%
    22:00 +24°C° 0 mm 1 mps 710 mmHg 69%
    23:00 +24°C° 0 mm 1 mps 710 mmHg 70%

    25 July, Thursday

    Time Temperature Precipitation Wind Pressure Humidity
    00:00 +23°C° 0 mm 1 mps 710 mmHg 70%
    01:00 +23°C° 0 mm 1 mps 710 mmHg 70%
    02:00 +22°C° 0 mm 1 mps 710 mmHg 71%
    03:00 +22°C° 0 mm 1 mps 710 mmHg 72%
    04:00 +22°C° 0 mm 1 mps 710 mmHg 73%
    05:00 +23°C° 0 mm 1 mps 710 mmHg 72%
    06:00 +22°C° 0 mm 0 mps 710 mmHg 71%
    07:00 +23°C° 0 mm 0 mps 710 mmHg 71%
    08:00 +25°C° 0 mm 0 mps 710 mmHg 64%
    09:00 +29°C° 0 mm 1 mps 710 mmHg 58%
    10:00 +31°C° 0 mm 1 mps 711 mmHg 52%
    11:00 +32°C° 0.1 mm 1 mps 710 mmHg 49%
    12:00 +33°C° 0.1 mm 1 mps 710 mmHg 47%
    13:00 +34°C° 0.1 mm 1 mps 710 mmHg 44%
    14:00 +34°C° 0.2 mm 1 mps 710 mmHg 45%
    15:00 +33°C° 0.2 mm 1 mps 710 mmHg 46%
    16:00 +33°C° 0.2 mm 1 mps 709 mmHg 48%
    17:00 +31°C° 0.1 mm 1 mps 709 mmHg 55%
    18:00 +30°C° 0.1 mm 1 mps 709 mmHg 63%
    19:00 +28°C° 0.1 mm 1 mps 709 mmHg 70%
    20:00 +27°C° 0.1 mm 1 mps 709 mmHg 71%
    21:00 +26°C° 0.1 mm 1 mps 709 mmHg 72%
    22:00 +25°C° 0.1 mm 1 mps 709 mmHg 73%
    23:00 +25°C° 0 mm 1 mps 709 mmHg 73%

    26 July, Friday

    Time Temperature Precipitation Wind Pressure Humidity
    00:00 +24°C° 0 mm 1 mps 709 mmHg 73%
    01:00 +24°C° 0 mm 1 mps 709 mmHg 73%
    02:00 +24°C° 0 mm 1 mps 708 mmHg 73%
    03:00 +23°C° 0 mm 1 mps 708 mmHg 73%
    04:00 +23°C° 0 mm 1 mps 708 mmHg 73%
    05:00 +24°C° 0 mm 1 mps 708 mmHg 73%
    06:00 +25°C° 0 mm 1 mps 708 mmHg 73%
    07:00 +25°C° 0 mm 1 mps 708 mmHg 73%
    08:00 +27°C° 0 mm 1 mps 708 mmHg 66%
    09:00 +29°C° 0 mm 1 mps 708 mmHg 59%
    10:00 +31°C° 0 mm 1 mps 708 mmHg 53%
    11:00 +32°C° 0.3 mm 1 mps 708 mmHg 51%
    12:00 +33°C° 0.3 mm 1 mps 708 mmHg 49%
    13:00 +34°C° 0.3 mm 1 mps 708 mmHg 47%
    14:00 +31°C° 0.8 mm 2 mps 707 mmHg 57%
    15:00 +29°C° 0.8 mm 2 mps 707 mmHg 66%
    16:00 +27°C° 0.8 mm 2 mps 706 mmHg 76%
    17:00 +25°C° 1.8 mm 2 mps 706 mmHg 81%
    18:00 +23°C° 1.8 mm 2 mps 706 mmHg 87%
    19:00 +21°C° 1.8 mm 2 mps 707 mmHg 93%
    20:00 +21°C° 0.2 mm 1 mps 707 mmHg 93%
    21:00 +21°C° 0.2 mm 1 mps 707 mmHg 93%
    22:00 +21°C° 0.2 mm 1 mps 708 mmHg 93%
    23:00 +21°C° 0.2 mm 1 mps 707 mmHg 92%

    27 July, Saturday

    Time Temperature Precipitation Wind Pressure Humidity
    00:00 +20°C° 0.2 mm 1 mps 707 mmHg 91%
    01:00 +20°C° 0.2 mm 1 mps 707 mmHg 91%
    02:00 +20°C° 0.2 mm 1 mps 707 mmHg 92%
    03:00 +19°C° 0.2 mm 1 mps 707 mmHg 93%
    04:00 +19°C° 0.2 mm 1 mps 707 mmHg 94%
    05:00 +17°C° 0.3 mm 0 mps 707 mmHg 94%
    06:00 +18°C° 0.3 mm 0 mps 707 mmHg 94%
    07:00 +18°C° 0.3 mm 0 mps 707 mmHg 94%
    08:00 +19°C° 0.2 mm 0 mps 707 mmHg 94%
    09:00 +19°C° 0.2 mm 0 mps 707 mmHg 93%
    10:00 +20°C° 0.2 mm 0 mps 707 mmHg 92%
    11:00 +22°C° 0.3 mm 1 mps 707 mmHg 88%
    12:00 +23°C° 0.3 mm 1 mps 707 mmHg 83%
    13:00 +24°C° 0.3 mm 2 mps 707 mmHg 79%
    14:00 +24°C° 1.4 mm 2 mps 707 mmHg 83%
    15:00 +23°C° 1.4 mm 2 mps 707 mmHg 87%
    16:00 +21°C° 1.4 mm 2 mps 706 mmHg 91%
    17:00 +22°C° 3.9 mm 1 mps 707 mmHg 93%
    18:00 +21°C° 3.9 mm 1 mps 707 mmHg 96%
    19:00 +20°C° 3.9 mm 1 mps 707 mmHg 98%
    20:00 +19°C° 3.6 mm 1 mps 707 mmHg 98%
    21:00 +17°C° 3.6 mm 0 mps 707 mmHg 98%
    22:00 +17°C° 3.6 mm 0 mps 707 mmHg 98%
    23:00 +17°C° 2 mm 0 mps 708 mmHg 98%
    Show more